Flag for Canada Weather past 2 weeks in Stonewall, Manitoba, Canada

Now
72 °F

Scattered clouds.


Feels Like: 77 °F
Forecast: 56 / 74 °F
Wind: 5 mph from Northwest

Location: Winnipeg Int. Airportman.

Current Time: Jul 23, 2014 at 7:55:18 PM

Latest Report: Jul 23, 2014 at 7:00 PM


Visibility: 15 mi

Pressure: 30.22 "Hg

Humidity: 47%

Dew point: 50 °F

Location of StonewallLocation

Historic Weather in Stonewall — Graph

°F

Stonewall temperature yesterday

Maximum temperature yesterday: 75 °F (at 6:00 PM)
Minimum temperature yesterday: 54 °F (at 6:00 AM)
Average temperature yesterday: 64 °F

Past Weeks' High & Low Weather Summary

 TemperatureHumidityPressure
High88 °F (Jul 20, 2:00 PM)100% (Jul 15, 1:00 AM)30.35 "Hg (Jul 15, 1:00 AM)
Low45 °F (Jul 15, 5:00 AM)38% (Jul 23, 5:00 PM)29.51 "Hg (Jul 20, 1:00 PM)
Average66 °F70%29.91 "Hg
* Reported Jul 8 6:00 PM — Jul 23 6:00 PM, Stonewall, Weather by CustomWeather, © 2014

Note: Actual official high and low records may vary slightly from our data, if they occured in-between our weather recording intervals... More about our weather records

Advertising

Stonewall weather history for previous 24 hours

 ConditionsComfort  
Time TempWeatherWind HumidityBarometerVisibility
6:00 PM
Jul 23
73 °FScattered clouds.7 mph44%30.25 "Hg15 mi
5:00 PM73 °FPassing clouds.2 mph38%30.26 "Hg15 mi
4:00 PM73 °FScattered clouds.6 mph47%30.28 "Hg15 mi
3:00 PM73 °FScattered clouds.9 mph41%30.30 "Hg15 mi
2:00 PM72 °FPartly sunny.3 mph44%30.31 "Hg15 mi
1:00 PM70 °FScattered clouds.8 mph46%30.32 "Hg15 mi
12:00 PM70 °FScattered clouds.8 mph50%30.33 "Hg15 mi
11:00 AM68 °FScattered clouds.5 mph56%30.34 "Hg15 mi
10:00 AM66 °FPassing clouds.5 mph64%30.35 "Hg15 mi
9:00 AM64 °FScattered clouds.2 mph78%30.35 "Hg15 mi
8:00 AM59 °FPassing clouds.2 mph88%30.34 "Hg15 mi
5:00 AM48 °FPassing clouds.5 mph94%30.32 "Hg15 mi
4:00 AM48 °FPassing clouds.3 mph94%30.32 "Hg15 mi
3:00 AM48 °FClear.6 mph100%30.31 "Hg15 mi
1:00 AM52 °FClear.7 mph94%30.29 "Hg15 mi
12:00 AM55 °FClear.6 mph88%30.28 "Hg15 mi
11:00 PM
Jul 22
59 °FClear.5 mph88%30.27 "Hg15 mi
10:00 PM63 °FPassing clouds.9 mph77%30.24 "Hg15 mi
9:00 PM66 °FPassing clouds.9 mph73%30.23 "Hg15 mi
8:00 PM70 °FPassing clouds.13 mph64%30.21 "Hg15 mi
Weather by CustomWeather, © 2014

See weather overviewHow to use our weather pages